Location: Focicchia
(42.2496°N, 9.2935°E)
Time: 09:49:42
(UTC+00:00)

Cosmos 2208 Rocket - Pass Details

Date: 07 June 2020
Orbit: 753 x 807 km, 74.0° (Epoch: 07 July)

Event Time Altitude Azimuth Distance (km) Brightness Sun altitude
Exits shadow 00:23:38 56° 231° (SW) 919 4.1 -23.4°
Maximum altitude 00:24:38 72° 291° (WNW) 821 4.0 -23.4°
Drops below altitude 10° 00:30:00 10° 16° (NNE) 2,358 7.6 -23.1°
Sets 00:32:26 0° 19° (NNE) 3,299 8.8 -23.0°
